| time (UTC) | temp F | wind direction | speed MPH | gust MPH | rain 1hr in | rain 24hr in | rain mn in | humidity % | barometer mb |
| 20260906203105 | 82 | 0.0 | 0.0 | 0.00 | 0.52 | 0.00 | 51 | 1014.9 | |
| 20260906202556 | 82 | 0.0 | 0.0 | 0.00 | 0.52 | 0.00 | 51 | 1014.9 | |
| 20260906202047 | 82 | 0.0 | 0.0 | 0.00 | 0.52 | 0.00 | 51 | 1014.9 | |
| 20260906201643 | 82 | 0.0 | 0.0 | 0.00 | 0.52 | 0.00 | 53 | 1014.8 | |
| 20260906201047 | 82 | 0.0 | 0.0 | 0.00 | 0.52 | 0.00 | 52 | 1014.8 | |
| 20260906200550 | 84 | 0.0 | 0.0 | 0.00 | 0.52 | 0.00 | 49 | 1014.7 | |
| 20260906200104 | 83 | 0.0 | 0.0 | 0.00 | 0.52 | 0.00 | 50 | 1014.6 | |
| 20260906195543 | 83 | 0.0 | 0.0 | 0.00 | 0.52 | 0.00 | 49 | 1014.5 | |
| 20260906195043 | 83 | 0.0 | 0.0 | 0.00 | 0.52 | 0.00 | 47 | 1014.4 | |
| 20260906194607 | 86 | 0.0 | 0.0 | 0.00 | 0.52 | 0.00 | 45 | 1014.6 | |
| 20260906194047 | 85 | 0.0 | 0.0 | 0.00 | 0.52 | 0.00 | 51 | 1014.7 | |
| 20260906193543 | 85 | 0.0 | 0.0 | 0.00 | 0.52 | 0.00 | 49 | 1014.7 | |
| 20260906193108 | 83 | 0.0 | 0.0 | 0.00 | 0.52 | 0.00 | 51 | 1014.8 | |
| 20260906192546 | 85 | 0.0 | 0.0 | 0.00 | 0.52 | 0.00 | 48 | 1014.7 | |
| 20260906192048 | 86 | 0.0 | 0.0 | 0.00 | 0.52 | 0.00 | 48 | 1014.6 | |
| 20260906191622 | 86 | 0.0 | 0.0 | 0.00 | 0.52 | 0.00 | 47 | 1014.8 | |
| 20260906191044 | 85 | 0.0 | 0.0 | 0.00 | 0.52 | 0.00 | 49 | 1014.8 | |
| 20260906190549 | 86 | 0.0 | 0.0 | 0.00 | 0.52 | 0.00 | 46 | 1014.9 | |
| 20260906190104 | 84 | 0.0 | 0.0 | 0.00 | 0.52 | 0.00 | 47 | 1014.8 | |
| 20260906185548 | 85 | 0.0 | 0.0 | 0.00 | 0.52 | 0.00 | 48 | 1015.1 | |
| 20260906185047 | 86 | 0.0 | 0.0 | 0.00 | 0.52 | 0.00 | 50 | 1015.1 | |
| 20260906184603 | 83 | 0.0 | 0.0 | 0.00 | 0.52 | 0.00 | 51 | 1015.0 | |
| 20260906184047 | 83 | 0.0 | 0.0 | 0.00 | 0.52 | 0.00 | 48 | 1015.2 | |
| 20260906183549 | 84 | 0.0 | 0.0 | 0.00 | 0.52 | 0.00 | 48 | 1015.0 | |
| 20260906183103 | 83 | 0.0 | 0.0 | 0.00 | 0.52 | 0.00 | 52 | 1015.2 | |
| 20260906182544 | 84 | 0.0 | 0.0 | 0.00 | 0.52 | 0.00 | 48 | 1015.2 | |
| 20260906182047 | 86 | 0.0 | 0.0 | 0.00 | 0.52 | 0.00 | 48 | 1015.0 | |
| 20260906181611 | 85 | 0.0 | 0.0 | 0.00 | 0.52 | 0.00 | 49 | 1015.0 | |
| 20260906181043 | 83 | 0.0 | 0.0 | 0.00 | 0.52 | 0.00 | 51 | 1015.1 | |
| 20260906180546 | 83 | 0.0 | 0.0 | 0.00 | 0.52 | 0.00 | 49 | 1015.1 | |
| 20260906180109 | 83 | 0.0 | 0.0 | 0.00 | 0.52 | 0.00 | 50 | 1015.3 | |
| 20260906175546 | 83 | 0.0 | 0.0 | 0.00 | 0.56 | 0.00 | 49 | 1015.1 | |
| 20260906175043 | 84 | 0.0 | 0.0 | 0.00 | 0.56 | 0.00 | 51 | 1015.2 | |
| 20260906174614 | 84 | 0.0 | 0.0 | 0.00 | 0.56 | 0.00 | 53 | 1015.2 | |
| 20260906174044 | 84 | 0.0 | 0.0 | 0.00 | 0.56 | 0.00 | 50 | 1015.2 | |
| 20260906173544 | 83 | 0.0 | 0.0 | 0.00 | 0.56 | 0.00 | 51 | 1015.2 | |
| 20260906173057 | 83 | 0.0 | 0.0 | 0.00 | 0.56 | 0.00 | 52 | 1015.3 | |
| 20260906172543 | 83 | 0.0 | 0.0 | 0.00 | 0.56 | 0.00 | 55 | 1015.3 | |
| 20260906172047 | 83 | 0.0 | 0.0 | 0.00 | 0.56 | 0.00 | 56 | 1015.3 | |
| 20260906171606 | 82 | 0.0 | 0.0 | 0.00 | 0.56 | 0.00 | 56 | 1015.5 | |
| 20260906171043 | 83 | 0.0 | 0.0 | 0.00 | 0.56 | 0.00 | 55 | 1015.6 | |
| 20260906170544 | 82 | 0.0 | 0.0 | 0.00 | 0.56 | 0.00 | 58 | 1015.5 | |
| 20260906170106 | 82 | 0.0 | 0.0 | 0.00 | 0.56 | 0.00 | 57 | 1015.6 | |
| 20260906165544 | 82 | 0.0 | 0.0 | 0.00 | 0.61 | 0.00 | 55 | 1015.6 | |
| 20260906165048 | 81 | 0.0 | 0.0 | 0.00 | 0.61 | 0.00 | 58 | 1015.6 | |
| 20260906164600 | 81 | 0.0 | 0.0 | 0.00 | 0.61 | 0.00 | 55 | 1015.6 | |
| 20260906164049 | 81 | 0.0 | 0.0 | 0.00 | 0.61 | 0.00 | 58 | 1015.7 | |
| 20260906163549 | 80 | 0.0 | 0.0 | 0.00 | 0.61 | 0.00 | 58 | 1015.8 | |
| 20260906163106 | 80 | 0.0 | 0.0 | 0.00 | 0.61 | 0.00 | 63 | 1015.8 | |
| 20260906162547 | 80 | 0.0 | 0.0 | 0.00 | 0.61 | 0.00 | 59 | 1015.9 | |
| 20260906162047 | 80 | 0.0 | 0.0 | 0.00 | 0.61 | 0.00 | 61 | 1015.8 | |
| 20260906161607 | 79 | 0.0 | 0.0 | 0.00 | 0.61 | 0.00 | 59 | 1015.9 | |
| 20260906161047 | 79 | 0.0 | 0.0 | 0.00 | 0.61 | 0.00 | 61 | 1015.9 | |
| 20260906160547 | 79 | 0.0 | 0.0 | 0.00 | 0.61 | 0.00 | 63 | 1016.0 | |
| 20260906160106 | 78 | 0.0 | 0.0 | 0.00 | 0.61 | 0.00 | 65 | 1016.1 | |
| 20260906155548 | 78 | 0.0 | 0.0 | 0.00 | 0.61 | 0.00 | 68 | 1016.0 | |
| 20260906155049 | 77 | 0.0 | 0.0 | 0.00 | 0.61 | 0.00 | 66 | 1016.0 | |
| 20260906154559 | 77 | 0.0 | 0.0 | 0.00 | 0.61 | 0.00 | 69 | 1016.0 | |
| 20260906154048 | 76 | 0.0 | 0.0 | 0.00 | 0.61 | 0.00 | 71 | 1016.1 | |
| 20260906153551 | 75 | 0.0 | 0.0 | 0.00 | 0.61 | 0.00 | 72 | 1016.0 | |
| 20260906153125 | 75 | 0.0 | 0.0 | 0.00 | 0.61 | 0.00 | 73 | 1015.9 | |
| 20260906152547 | 75 | 0.0 | 0.0 | 0.00 | 0.61 | 0.00 | 73 | 1015.9 | |
| 20260906152047 | 73 | 0.0 | 0.0 | 0.00 | 0.61 | 0.00 | 76 | 1015.7 | |
| 20260906151604 | 73 | 0.0 | 0.0 | 0.00 | 0.61 | 0.00 | 77 | 1015.8 | |
| 20260906151050 | 73 | 0.0 | 0.0 | 0.00 | 0.61 | 0.00 | 76 | 1015.9 | |
| 20260906150550 | 73 | 0.0 | 0.0 | 0.00 | 0.61 | 0.00 | 78 | 1015.9 | |
| 20260906145547 | 72 | 0.0 | 0.0 | 0.00 | 0.61 | 0.00 | 82 | 1015.8 | |
| 20260906145050 | 71 | 0.0 | 0.0 | 0.00 | 0.61 | 0.00 | 83 | 1015.8 | |
| 20260906144618 | 71 | 0.0 | 0.0 | 0.00 | 0.61 | 0.00 | 83 | 1015.9 | |
| 20260906144047 | 70 | 0.0 | 0.0 | 0.00 | 0.61 | 0.00 | 85 | 1015.8 | |
| 20260906143550 | 71 | 0.0 | 0.0 | 0.00 | 0.61 | 0.00 | 84 | 1015.8 | |
| 20260906143107 | 70 | 0.0 | 0.0 | 0.00 | 0.61 | 0.00 | 84 | 1015.8 | |
| 20260906142547 | 69 | 0.0 | 0.0 | 0.00 | 0.61 | 0.00 | 88 | 1015.8 | |
| 20260906142047 | 68 | 0.0 | 0.0 | 0.00 | 0.61 | 0.00 | 92 | 1015.9 | |
| 20260906141616 | 67 | 0.0 | 0.0 | 0.00 | 0.61 | 0.00 | 94 | 1015.7 | |
| 20260906141047 | 67 | 0.0 | 0.0 | 0.00 | 0.61 | 0.00 | 94 | 1015.7 | |
| 20260906140547 | 67 | 0.0 | 0.0 | 0.00 | 0.61 | 0.00 | 95 | 1015.7 | |
| 20260906140110 | 67 | 0.0 | 0.0 | 0.00 | 0.61 | 0.00 | 95 | 1015.7 | |
| 20260906135547 | 67 | 0.0 | 0.0 | 0.00 | 0.61 | 0.00 | 95 | 1015.7 | |
| 20260906135048 | 66 | 0.0 | 0.0 | 0.00 | 0.61 | 0.00 | 96 | 1015.7 | |
| 20260906134634 | 65 | 0.0 | 0.0 | 0.00 | 0.61 | 0.00 | 96 | 1015.7 | |
| 20260906134048 | 65 | 0.0 | 0.0 | 0.00 | 0.61 | 0.00 | 96 | 1015.8 | |
| 20260906133547 | 65 | 0.0 | 0.0 | 0.00 | 0.61 | 0.00 | 96 | 1015.9 | |
| 20260906133103 | 65 | 0.0 | 0.0 | 0.00 | 0.61 | 0.00 | 96 | 1015.7 | |
| 20260906132552 | 65 | 0.0 | 0.0 | 0.00 | 0.61 | 0.00 | 96 | 1015.7 | |
| 20260906132049 | 65 | 0.0 | 0.0 | 0.00 | 0.61 | 0.00 | 96 | 1015.7 | |
| 20260906131555 | 65 | 0.0 | 0.0 | 0.00 | 0.61 | 0.00 | 96 | 1015.7 | |
| 20260906131048 | 64 | 0.0 | 0.0 | 0.00 | 0.61 | 0.00 | 96 | 1015.6 | |
| 20260906130548 | 64 | 0.0 | 0.0 | 0.00 | 0.61 | 0.00 | 96 | 1015.5 | |
| 20260906130108 | 64 | 0.0 | 0.0 | 0.00 | 0.61 | 0.00 | 96 | 1015.6 | |
| 20260906125550 | 64 | 0.0 | 0.0 | 0.00 | 0.61 | 0.00 | 96 | 1015.6 | |
| 20260906125051 | 64 | 0.0 | 0.0 | 0.00 | 0.61 | 0.00 | 95 | 1015.4 | |
| 20260906124609 | 64 | 0.0 | 0.0 | 0.00 | 0.61 | 0.00 | 95 | 1015.6 | |
| 20260906124051 | 64 | 0.0 | 0.0 | 0.00 | 0.61 | 0.00 | 95 | 1015.5 | |
| 20260906123548 | 64 | 0.0 | 0.0 | 0.00 | 0.61 | 0.00 | 95 | 1015.5 | |
| 20260906123101 | 63 | 0.0 | 0.0 | 0.00 | 0.61 | 0.00 | 95 | 1015.5 | |
| 20260906122548 | 63 | 0.0 | 0.0 | 0.00 | 0.61 | 0.00 | 95 | 1015.5 | |
| 20260906122049 | 63 | 0.0 | 0.0 | 0.00 | 0.61 | 0.00 | 95 | 1015.4 | |
| 20260906121607 | 63 | 0.0 | 0.0 | 0.00 | 0.61 | 0.00 | 95 | 1015.4 | |
| 20260906121051 | 63 | 0.0 | 0.0 | 0.00 | 0.61 | 0.00 | 95 | 1015.2 | |
| 20260906120548 | 63 | 0.0 | 0.0 | 0.00 | 0.61 | 0.00 | 95 | 1015.1 | |
| 20260906120107 | 63 | 0.0 | 0.0 | 0.00 | 0.61 | 0.00 | 95 | 1015.1 | |
| 20260906115549 | 63 | 0.0 | 0.0 | 0.00 | 0.61 | 0.00 | 95 | 1015.2 | |
| 20260906115050 | 63 | 0.0 | 0.0 | 0.00 | 0.61 | 0.00 | 95 | 1015.1 | |
| 20260906114629 | 63 | 0.0 | 0.0 | 0.00 | 0.61 | 0.00 | 95 | 1014.9 | |
| 20260906114047 | 63 | 0.0 | 0.0 | 0.00 | 0.61 | 0.00 | 95 | 1015.0 | |
| 20260906113548 | 63 | 0.0 | 0.0 | 0.00 | 0.61 | 0.00 | 95 | 1015.0 | |
| 20260906113103 | 63 | 0.0 | 0.0 | 0.00 | 0.61 | 0.00 | 95 | 1015.0 | |
| 20260906112551 | 63 | 0.0 | 0.0 | 0.00 | 0.61 | 0.00 | 95 | 1014.9 | |
| 20260906112049 | 63 | 0.0 | 0.0 | 0.00 | 0.61 | 0.00 | 95 | 1014.8 | |
| 20260906111625 | 63 | 0.0 | 0.0 | 0.00 | 0.61 | 0.00 | 95 | 1014.6 | |
| 20260906111051 | 63 | 0.0 | 0.0 | 0.00 | 0.61 | 0.00 | 95 | 1014.7 | |
| 20260906110549 | 63 | 0.0 | 0.0 | 0.00 | 0.61 | 0.00 | 95 | 1014.5 | |
| 20260906110057 | 63 | 0.0 | 0.0 | 0.00 | 0.61 | 0.00 | 95 | 1014.5 | |
| 20260906105549 | 63 | 0.0 | 0.0 | 0.00 | 0.61 | 0.00 | 95 | 1014.5 | |
| 20260906105050 | 63 | 0.0 | 0.0 | 0.00 | 0.61 | 0.00 | 95 | 1014.5 | |
| 20260906104607 | 63 | 0.0 | 0.0 | 0.00 | 0.61 | 0.00 | 95 | 1014.4 | |
| 20260906104049 | 63 | 0.0 | 0.0 | 0.00 | 0.61 | 0.00 | 95 | 1014.1 | |
| 20260906103548 | 63 | 0.0 | 0.0 | 0.00 | 0.61 | 0.00 | 95 | 1014.0 | |
| 20260906103125 | 63 | 0.0 | 0.0 | 0.00 | 0.61 | 0.00 | 95 | 1014.0 | |
| 20260906102544 | 63 | 0.0 | 0.0 | 0.00 | 0.61 | 0.00 | 95 | 1013.9 | |
| 20260906102056 | 63 | 0.0 | 0.0 | 0.00 | 0.61 | 0.00 | 94 | 1013.9 | |
| 20260906101605 | 63 | 0.0 | 0.0 | 0.00 | 0.61 | 0.00 | 94 | 1013.9 | |
| 20260906101045 | 64 | 0.0 | 0.0 | 0.00 | 0.61 | 0.00 | 94 | 1013.9 | |
| 20260906100547 | 64 | 0.0 | 0.0 | 0.00 | 0.61 | 0.00 | 94 | 1013.8 | |
| 20260906100105 | 64 | 0.0 | 0.0 | 0.00 | 0.61 | 0.00 | 95 | 1013.7 | |
| 20260906095545 | 64 | 0.0 | 0.0 | 0.00 | 0.61 | 0.00 | 95 | 1013.8 | |
| 20260906095044 | 64 | 0.0 | 0.0 | 0.00 | 0.61 | 0.00 | 95 | 1013.7 | |
| 20260906094602 | 64 | 0.0 | 0.0 | 0.00 | 0.61 | 0.00 | 95 | 1013.8 | |
| 20260906094045 | 64 | 0.0 | 0.0 | 0.00 | 0.61 | 0.00 | 94 | 1013.7 | |
| 20260906093544 | 64 | 0.0 | 0.0 | 0.00 | 0.61 | 0.00 | 94 | 1013.6 | |
| 20260906093106 | 64 | 0.0 | 0.0 | 0.00 | 0.61 | 0.00 | 94 | 1013.6 | |
| 20260906092543 | 64 | 0.0 | 0.0 | 0.00 | 0.61 | 0.00 | 95 | 1013.6 | |
| 20260906092056 | 64 | 0.0 | 0.0 | 0.00 | 0.61 | 0.00 | 95 | 1013.6 | |
| 20260906091612 | 65 | 0.0 | 0.0 | 0.00 | 0.61 | 0.00 | 95 | 1013.6 | |
| 20260906091044 | 65 | 0.0 | 0.0 | 0.00 | 0.61 | 0.00 | 94 | 1013.6 | |
| 20260906090547 | 65 | 0.0 | 0.0 | 0.00 | 0.61 | 0.00 | 94 | 1013.4 | |
| 20260906090116 | 65 | 0.0 | 0.0 | 0.00 | 0.61 | 0.00 | 94 | 1013.2 | |
| 20260906085547 | 65 | 0.0 | 0.0 | 0.00 | 0.61 | 0.00 | 95 | 1013.2 | |
| 20260906085046 | 65 | 0.0 | 0.0 | 0.00 | 0.61 | 0.00 | 95 | 1013.2 | |
| 20260906084612 | 65 | 0.0 | 0.0 | 0.00 | 0.61 | 0.00 | 95 | 1013.3 | |
| 20260906084046 | 65 | 0.0 | 0.0 | 0.00 | 0.61 | 0.00 | 95 | 1013.2 | |
| 20260906083544 | 65 | 0.0 | 0.0 | 0.00 | 0.61 | 0.00 | 95 | 1013.2 | |
| 20260906083100 | 66 | 0.0 | 0.0 | 0.00 | 0.61 | 0.00 | 94 | 1013.2 | |
| 20260906082546 | 66 | 0.0 | 0.0 | 0.00 | 0.61 | 0.00 | 94 | 1013.0 | |
| 20260906082050 | 66 | 0.0 | 0.0 | 0.00 | 0.61 | 0.00 | 95 | 1012.8 | |
| 20260906081609 | 66 | 0.0 | 0.0 | 0.00 | 0.61 | 0.00 | 95 | 1012.9 | |
| 20260906081050 | 66 | 0.0 | 0.0 | 0.00 | 0.61 | 0.00 | 95 | 1013.0 | |
| 20260906080547 | 66 | 0.0 | 0.0 | 0.00 | 0.61 | 0.00 | 94 | 1012.8 | |
| 20260906080057 | 66 | 0.0 | 0.0 | 0.00 | 0.61 | 0.00 | 94 | 1012.9 | |
| 20260906075546 | 66 | 0.0 | 0.0 | 0.00 | 0.61 | 0.00 | 95 | 1012.8 | |
| 20260906075046 | 66 | 0.0 | 0.0 | 0.00 | 0.61 | 0.00 | 95 | 1012.8 | |
| 20260906074612 | 67 | 0.0 | 0.0 | 0.00 | 0.61 | 0.00 | 95 | 1012.7 | |
| 20260906074046 | 67 | 0.0 | 0.0 | 0.00 | 0.61 | 0.00 | 95 | 1012.7 | |
| 20260906073549 | 67 | 0.0 | 0.0 | 0.00 | 0.61 | 0.00 | 95 | 1012.7 | |
| 20260906073107 | 67 | 0.0 | 0.0 | 0.00 | 0.61 | 0.00 | 95 | 1012.7 | |
| 20260906072625 | 67 | 0.0 | 0.0 | 0.00 | 0.61 | 0.00 | 95 | 1012.7 | |
| 20260906072050 | 67 | 0.0 | 0.0 | 0.00 | 0.61 | 0.00 | 95 | 1012.7 | |
| 20260906071609 | 67 | 0.0 | 0.0 | 0.00 | 0.61 | 0.00 | 94 | 1012.8 | |
| 20260906071047 | 67 | 0.0 | 0.0 | 0.00 | 0.61 | 0.00 | 94 | 1012.7 | |
| 20260906070548 | 67 | 0.0 | 0.0 | 0.00 | 0.61 | 0.00 | 94 | 1012.7 | |
| 20260906070138 | 67 | 0.0 | 0.0 | 0.00 | 0.61 | 0.00 | 94 | 1012.8 | |
| 20260906065548 | 67 | 0.0 | 0.0 | 0.00 | 0.62 | 0.00 | 94 | 1012.8 | |
| 20260906065045 | 67 | 0.0 | 0.0 | 0.00 | 0.62 | 0.00 | 94 | 1012.9 | |
| 20260906064601 | 67 | 0.0 | 0.0 | 0.00 | 0.62 | 0.00 | 94 | 1012.9 | |
| 20260906064053 | 67 | 0.0 | 0.0 | 0.00 | 0.62 | 0.00 | 94 | 1012.9 | |
| 20260906063546 | 67 | 0.0 | 0.0 | 0.00 | 0.62 | 0.00 | 94 | 1012.8 | |
| 20260906063108 | 67 | 0.0 | 0.0 | 0.00 | 0.62 | 0.00 | 94 | 1013.0 | |
| 20260906062547 | 67 | 0.0 | 0.0 | 0.00 | 0.62 | 0.00 | 94 | 1012.9 | |
| 20260906062046 | 67 | 0.0 | 0.0 | 0.00 | 0.62 | 0.00 | 94 | 1012.9 | |
| 20260906061632 | 67 | 0.0 | 0.0 | 0.00 | 0.62 | 0.00 | 94 | 1012.9 | |
| 20260906061047 | 68 | 0.0 | 0.0 | 0.00 | 0.62 | 0.00 | 94 | 1012.9 | |
| 20260906060548 | 68 | 0.0 | 0.0 | 0.00 | 0.62 | 0.00 | 94 | 1012.9 | |
| 20260906060109 | 68 | 0.0 | 0.0 | 0.00 | 0.62 | 0.00 | 94 | 1012.9 | |
| 20260906055546 | 68 | 0.0 | 0.0 | 0.00 | 0.62 | 0.00 | 94 | 1012.9 | |
| 20260906055047 | 68 | 0.0 | 0.0 | 0.00 | 0.62 | 0.00 | 94 | 1012.8 | |
| 20260906054601 | 68 | 0.0 | 0.0 | 0.00 | 0.62 | 0.00 | 94 | 1012.9 | |
| 20260906054046 | 68 | 0.0 | 0.0 | 0.00 | 0.62 | 0.00 | 94 | 1012.8 | |
| 20260906053545 | 68 | 0.0 | 0.0 | 0.00 | 0.62 | 0.00 | 94 | 1012.9 | |
| 20260906053058 | 68 | 0.0 | 0.0 | 0.00 | 0.62 | 0.00 | 94 | 1012.9 | |
| 20260906052546 | 68 | 0.0 | 0.0 | 0.00 | 0.62 | 0.00 | 94 | 1012.9 | |
| 20260906052046 | 68 | 0.0 | 0.0 | 0.00 | 0.62 | 0.00 | 94 | 1013.0 | |
| 20260906051557 | 68 | 0.0 | 0.0 | 0.00 | 0.62 | 0.00 | 94 | 1013.1 | |
| 20260906051045 | 68 | 0.0 | 0.0 | 0.00 | 0.62 | 0.00 | 94 | 1013.1 | |
| 20260906050551 | 68 | 0.0 | 0.0 | 0.00 | 0.62 | 0.00 | 94 | 1013.1 | |
| 20260906050116 | 69 | 0.0 | 0.0 | 0.00 | 0.62 | 0.00 | 94 | 1013.1 | |
| 20260906045544 | 69 | 0.0 | 0.0 | 0.00 | 0.62 | 0.00 | 94 | 1013.0 | |
| 20260906045045 | 69 | 0.0 | 0.0 | 0.00 | 0.62 | 0.00 | 94 | 1013.0 | |
| 20260906044603 | 69 | 0.0 | 0.0 | 0.00 | 0.62 | 0.00 | 94 | 1013.0 | |
| 20260906044045 | 69 | 0.0 | 0.0 | 0.00 | 0.62 | 0.00 | 94 | 1013.0 | |
| 20260906043545 | 69 | 0.0 | 0.0 | 0.00 | 0.62 | 0.00 | 94 | 1013.0 | |
| 20260906043109 | 69 | 0.0 | 0.0 | 0.00 | 0.62 | 0.00 | 94 | 1013.0 | |
| 20260906042545 | 69 | 0.0 | 0.0 | 0.00 | 0.62 | 0.00 | 94 | 1013.2 | |
| 20260906042046 | 69 | 0.0 | 0.0 | 0.00 | 0.62 | 0.00 | 94 | 1013.4 | |
| 20260906041604 | 69 | 0.0 | 0.0 | 0.00 | 0.62 | 0.00 | 94 | 1013.3 | |
| 20260906041049 | 69 | 0.0 | 0.0 | 0.00 | 0.62 | 0.00 | 94 | 1013.3 | |
| 20260906040549 | 69 | 0.0 | 0.0 | 0.00 | 0.62 | 0.00 | 94 | 1013.4 | |
| 20260906040119 | 69 | 0.0 | 0.0 | 0.00 | 0.62 | 0.00 | 94 | 1013.4 | |
| 20260906035549 | 70 | 0.0 | 0.0 | 0.00 | 0.62 | 0.62 | 94 | 1013.4 | |
| 20260906035049 | 70 | 0.0 | 0.0 | 0.00 | 0.62 | 0.62 | 94 | 1013.4 | |
| 20260906034607 | 70 | 0.0 | 0.0 | 0.00 | 0.62 | 0.62 | 94 | 1013.5 | |
| 20260906034048 | 70 | 0.0 | 0.0 | 0.00 | 0.62 | 0.62 | 94 | 1013.5 | |
| 20260906033548 | 70 | 0.0 | 0.0 | 0.00 | 0.62 | 0.62 | 94 | 1013.3 | |
| 20260906033105 | 70 | 0.0 | 0.0 | 0.00 | 0.62 | 0.62 | 94 | 1013.2 | |
| 20260906032552 | 70 | 0.0 | 0.0 | 0.00 | 0.62 | 0.62 | 94 | 1013.2 | |
| 20260906032049 | 70 | 0.0 | 0.0 | 0.01 | 0.62 | 0.62 | 94 | 1013.3 | |
| 20260906031610 | 70 | 0.0 | 0.0 | 0.01 | 0.62 | 0.62 | 94 | 1013.3 | |
| 20260906031049 | 70 | 0.0 | 0.0 | 0.01 | 0.62 | 0.62 | 94 | 1013.4 | |
| 20260906030546 | 70 | 0.0 | 0.0 | 0.01 | 0.62 | 0.62 | 94 | 1013.2 | |
| 20260906030110 | 70 | 0.0 | 0.0 | 0.01 | 0.62 | 0.62 | 94 | 1013.2 | |
| 20260906025549 | 70 | 0.0 | 0.0 | 0.02 | 0.62 | 0.62 | 94 | 1013.1 | |
| 20260906025051 | 70 | 0.0 | 0.0 | 0.02 | 0.62 | 0.62 | 94 | 1013.0 | |
| 20260906024608 | 70 | 0.0 | 0.0 | 0.02 | 0.62 | 0.62 | 94 | 1013.2 | |
| 20260906024052 | 71 | 0.0 | 0.0 | 0.03 | 0.62 | 0.62 | 94 | 1013.1 | |
| 20260906023549 | 71 | 0.0 | 0.0 | 0.03 | 0.62 | 0.62 | 93 | 1013.0 | |
| 20260906023131 | 71 | 0.0 | 0.0 | 0.04 | 0.62 | 0.62 | 93 | 1013.1 | |
| 20260906022551 | 71 | 0.0 | 0.0 | 0.04 | 0.62 | 0.62 | 93 | 1013.0 | |
| 20260906022048 | 71 | 0.0 | 0.0 | 0.04 | 0.61 | 0.61 | 94 | 1013.0 | |
| 20260906021605 | 71 | 0.0 | 0.0 | 0.05 | 0.61 | 0.61 | 93 | 1013.1 | |
| 20260906021049 | 71 | 0.0 | 0.0 | 0.05 | 0.61 | 0.61 | 93 | 1013.3 | |
| 20260906020549 | 71 | 0.0 | 0.0 | 0.06 | 0.61 | 0.61 | 93 | 1013.2 | |
| 20260906020108 | 71 | 0.0 | 0.0 | 0.07 | 0.61 | 0.61 | 93 | 1013.1 | |
| 20260906015550 | 72 | 0.0 | 0.0 | 0.06 | 0.60 | 0.60 | 93 | 1012.9 | |
| 20260906015049 | 72 | 0.0 | 0.0 | 0.07 | 0.60 | 0.60 | 93 | 1013.0 | |
| 20260906014623 | 72 | 0.0 | 0.0 | 0.08 | 0.60 | 0.60 | 93 | 1012.9 | |
| 20260906014048 | 72 | 0.0 | 0.0 | 0.08 | 0.58 | 0.58 | 93 | 1012.9 | |
| 20260906013548 | 72 | 0.0 | 0.0 | 0.09 | 0.58 | 0.58 | 93 | 1012.9 | |
| 20260906013108 | 72 | 0.0 | 0.0 | 0.09 | 0.58 | 0.58 | 93 | 1012.7 | |
| 20260906012556 | 72 | 0.0 | 0.0 | 0.10 | 0.58 | 0.58 | 93 | 1012.7 | |
| 20260906012049 | 72 | 0.0 | 0.0 | 0.10 | 0.57 | 0.57 | 93 | 1012.7 | |
| 20260906011606 | 72 | 0.0 | 0.0 | 0.10 | 0.56 | 0.56 | 93 | 1012.6 | |
| 20260906011044 | 73 | 0.0 | 0.0 | 0.11 | 0.56 | 0.56 | 93 | 1012.5 | |
| 20260906010544 | 73 | 0.0 | 0.0 | 0.11 | 0.55 | 0.55 | 93 | 1012.3 | |
| 20260906010107 | 73 | 0.0 | 0.0 | 0.11 | 0.54 | 0.54 | 93 | 1012.1 | |
| 20260906005544 | 73 | 0.0 | 0.0 | 0.12 | 0.54 | 0.54 | 93 | 1012.1 | |
| 20260906005047 | 73 | 0.0 | 0.0 | 0.12 | 0.52 | 0.52 | 93 | 1011.9 | |
| 20260906004614 | 73 | 0.0 | 0.0 | 0.12 | 0.52 | 0.52 | 93 | 1011.9 | |
| 20260906004051 | 73 | 0.0 | 0.0 | 0.12 | 0.51 | 0.51 | 93 | 1012.0 | |
| 20260906003547 | 73 | 0.0 | 0.0 | 0.12 | 0.50 | 0.50 | 93 | 1011.8 | |
| 20260906003059 | 73 | 0.0 | 0.0 | 0.12 | 0.49 | 0.49 | 93 | 1011.9 | |
| 20260906002546 | 73 | 0.0 | 0.0 | 0.12 | 0.48 | 0.48 | 92 | 1011.9 | |
| 20260906002045 | 73 | 0.0 | 0.0 | 0.12 | 0.47 | 0.47 | 93 | 1011.9 | |
| 20260906001605 | 73 | 0.0 | 0.0 | 0.13 | 0.46 | 0.46 | 93 | 1011.8 | |
| 20260906001045 | 73 | 0.0 | 0.0 | 0.13 | 0.45 | 0.45 | 93 | 1011.7 | |
| 20260906000544 | 73 | 0.0 | 0.0 | 0.13 | 0.44 | 0.44 | 92 | 1011.7 | |
| 20260906000111 | 73 | 0.0 | 0.0 | 0.13 | 0.43 | 0.43 | 92 | 1011.8 | |
| 20260905235544 | 74 | 0.0 | 0.0 | 0.13 | 0.42 | 0.42 | 92 | 1011.7 | |
| 20260905235047 | 74 | 0.0 | 0.0 | 0.14 | 0.41 | 0.41 | 92 | 1011.8 | |
| 20260905234605 | 74 | 0.0 | 0.0 | 0.14 | 0.40 | 0.40 | 92 | 1011.8 | |
| 20260905234048 | 74 | 0.0 | 0.0 | 0.14 | 0.39 | 0.39 | 92 | 1011.7 | |
| 20260905233544 | 74 | 0.0 | 0.0 | 0.15 | 0.38 | 0.38 | 92 | 1011.7 | |
| 20260905233109 | 74 | 0.0 | 0.0 | 0.15 | 0.37 | 0.37 | 92 | 1011.7 | |
| 20260905232545 | 74 | 0.0 | 0.0 | 0.15 | 0.36 | 0.36 | 92 | 1011.8 | |
| 20260905232046 | 74 | 0.0 | 0.0 | 0.15 | 0.34 | 0.34 | 92 | 1011.7 | |
| 20260905231559 | 74 | 0.0 | 0.0 | 0.15 | 0.33 | 0.33 | 92 | 1011.7 | |
| 20260905231046 | 74 | 0.0 | 0.0 | 0.16 | 0.32 | 0.32 | 91 | 1011.7 | |
| 20260905230546 | 74 | 0.0 | 0.0 | 0.16 | 0.31 | 0.31 | 91 | 1011.7 | |
| 20260905230110 | 74 | 0.0 | 0.0 | 0.17 | 0.30 | 0.30 | 91 | 1011.7 | |
| 20260905225547 | 74 | 0.0 | 0.0 | 0.16 | 0.28 | 0.28 | 91 | 1011.6 | |
| 20260905225049 | 74 | 0.0 | 0.0 | 0.16 | 0.27 | 0.27 | 91 | 1011.6 | |
| 20260905224608 | 74 | 0.0 | 0.0 | 0.16 | 0.26 | 0.26 | 90 | 1011.6 | |
| 20260905224047 | 74 | 0.0 | 0.0 | 0.15 | 0.25 | 0.25 | 89 | 1011.7 | |
| 20260905223545 | 75 | 0.0 | 0.0 | 0.13 | 0.23 | 0.23 | 89 | 1011.6 | |
| 20260905223100 | 75 | 0.0 | 0.0 | 0.12 | 0.22 | 0.22 | 88 | 1011.6 | |
| 20260905222546 | 75 | 0.0 | 0.0 | 0.11 | 0.21 | 0.21 | 88 | 1011.6 | |
| 20260905222044 | 75 | 0.0 | 0.0 | 0.09 | 0.19 | 0.19 | 87 | 1011.6 | |
| 20260905221606 | 75 | 0.0 | 0.0 | 0.08 | 0.18 | 0.18 | 86 | 1011.5 | |
| 20260905221046 | 76 | 0.0 | 0.0 | 0.06 | 0.16 | 0.16 | 86 | 1011.4 | |
| 20260905220545 | 76 | 0.0 | 0.0 | 0.05 | 0.15 | 0.15 | 85 | 1011.5 | |
| 20260905220123 | 77 | 0.0 | 0.0 | 0.03 | 0.13 | 0.13 | 84 | 1011.7 | |
| 20260905215547 | 77 | 0.0 | 0.0 | 0.02 | 0.12 | 0.12 | 84 | 1011.7 | |
| 20260905215049 | 78 | 0.0 | 0.0 | 0.01 | 0.11 | 0.11 | 84 | 1011.8 | |
| 20260905214608 | 78 | 0.0 | 0.0 | 0.00 | 0.10 | 0.10 | 83 | 1011.3 | |
| 20260905214048 | 78 | 0.0 | 0.0 | 0.00 | 0.10 | 0.10 | 83 | 1011.4 | |
| 20260905213546 | 78 | 0.0 | 0.0 | 0.00 | 0.10 | 0.10 | 83 | 1011.3 | |
| 20260905213057 | 78 | 0.0 | 0.0 | 0.00 | 0.10 | 0.10 | 83 | 1011.2 | |
| 20260905212545 | 78 | 0.0 | 0.0 | 0.00 | 0.10 | 0.10 | 83 | 1011.1 | |
| 20260905212045 | 78 | 0.0 | 0.0 | 0.00 | 0.10 | 0.10 | 84 | 1010.9 | |
| 20260905211610 | 78 | 0.0 | 0.0 | 0.00 | 0.10 | 0.10 | 84 | 1010.9 | |
| 20260905211047 | 78 | 0.0 | 0.0 | 0.00 | 0.10 | 0.10 | 85 | 1011.0 | |
| 20260905210550 | 78 | 0.0 | 0.0 | 0.00 | 0.10 | 0.10 | 85 | 1010.9 | |
| 20260905205545 | 79 | 0.0 | 0.0 | 0.00 | 0.36 | 0.10 | 82 | 1010.8 | |
| 20260905205045 | 79 | 0.0 | 0.0 | 0.00 | 0.36 | 0.10 | 81 | 1010.8 | |
| 20260905204608 | 79 | 0.0 | 0.0 | 0.00 | 0.36 | 0.10 | 81 | 1010.8 | |
| 20260905204046 | 79 | 0.0 | 0.0 | 0.00 | 0.36 | 0.10 | 82 | 1010.7 | |
| 20260905203547 | 79 | 0.0 | 0.0 | 0.00 | 0.36 | 0.10 | 83 | 1010.9 |